Location: Dal�� Lhota
(48.7500°N, 14.0167°E)
Time: 09:30:53
(UTC+00:00)

Explorer 7 - Pass Details

Date: 04 August 2021
Orbit: 484 x 676 km, 50.3° (Epoch: 21 September)

Event Time Altitude Azimuth Distance (km) Brightness Sun altitude
Rises 08:49:33 0° 286° (WNW) 2,672 9.9 47.5°
Reaches altitude 10° 08:51:54 10° 275° (W) 1,811 9.2 47.8°
Maximum altitude 08:55:29 29° 215° (SW) 1,050 8.6 48.2°
Drops below altitude 10° 08:59:15 10° 155° (SSE) 1,909 10.4 48.7°
Sets 09:01:49 0° 145° (SE) 2,845 11.1 49.1°
